Погода в Любани

Беларусь     52°47′56″N   27°59′36″E
темп.,
°C
ветер,
м/с
пор.,
м/с
влажн.,
%
обл.,
%
осадки,
мм/ч
давл.,
гПа
погр.,
м
17 мая, пн
пн1700:00+13юв3692100 1.3 100899
03:00+13вюв3695100 1.6 1008119
06:00+13ююв41096100 0.3 1007271
09:00+14с1194100 0.3 100733
12:00+14вюв1294100 3.4 1007101
15:00+16ссв3482100 3.8 1005469
18:00+13с2397100 2.3 1004116
21:00+13с259598 2.5 1003159
18 мая, вт
вт1800:00+13ссз3796100 0.1 1002229
03:00+12сз249676 0.1 1002100
06:00+12сз2396100 0.1 1001139
09:00+12сз1297100 1.3 100281
12:00+13зсз1194100 0.4 1003120
15:00+18с227555 0.5 1002734
18:00+18с227149 0.2 1002789
21:00+14с3591100 0.4 100293
19 мая, ср
ср1900:00+13ссз369295 0.3 1002143
03:00+12ссз3796100 0.4 1003228
06:00+12ссз3897100 0.5 1003289
09:00+13с3797100 1.5 1003406
12:00+13ссз4797100 4.4 1004385
15:00+13сз51097100 10.7 1005622
18:00+12сз71391100 1.4 1006667
21:00+11сз51295100 4.4 1006674
20 мая, чт
чт2000:00+11зсз51098100 16.3 1006601
03:00+11сз71396100 20.6 1006686
06:00+11зсз51295100 2.2 1006567
09:00+12зсз578971 2.4 1007621
12:00+15зсз677231 0.7 10081236
15:00+17зсз556272 0.8 10091540
18:00+16сз3470100 0.5 1009814
21:00+12с228199 0.9 101111
21 мая, пт
пт2100:00+11ссв2291100 0.2 101226
03:00+9ссв3395100 0.4 101350
06:00+10св3596100 0.3 1014155
09:00+11св3493100 1.5 1016253
12:00+13всв3488100 1.4 1017287
15:00+15всв337284 2.3 1016939
18:00+15вюв3377100 0.3 1017625
21:00+11в1192100 0.4 101810